• In Deutschland
  • Länderverzeichnis
  • Für 7 Tage
  • Wassertemperatur
  • Satellitenkarten
  • Wetterkarte
  • Widgets
  • user-avatar
    Anmelden

    Stündliche Wetter Mingachevir

    Heute, 22 Juli, Sonntag

    Zeit Temperatur Niederschläge Wind Luftdruck Luftfeuchtigkeit
    00:00 +29°C° 0,7 mm 3 m/S 748 mmHg 61%
    01:00 +28°C° 0,1 mm 2 m/S 748 mmHg 61%
    02:00 +28°C° 0,1 mm 2 m/S 748 mmHg 62%
    03:00 +28°C° 0 mm 1 m/S 747 mmHg 62%
    04:00 +28°C° 0,3 mm 1 m/S 748 mmHg 63%
    05:00 +28°C° 0,3 mm 1 m/S 748 mmHg 64%
    06:00 +28°C° 0,3 mm 1 m/S 748 mmHg 65%
    07:00 +28°C° 0,2 mm 2 m/S 748 mmHg 65%
    08:00 +28°C° 0,2 mm 2 m/S 748 mmHg 64%
    09:00 +28°C° 0,2 mm 2 m/S 748 mmHg 63%
    10:00 +30°C° 0 mm 2 m/S 747 mmHg 59%
    11:00 +31°C° 0 mm 2 m/S 747 mmHg 54%
    12:00 +32°C° 0 mm 2 m/S 747 mmHg 49%
    13:00 +34°C° 0 mm 2 m/S 746 mmHg 45%
    14:00 +35°C° 0 mm 2 m/S 746 mmHg 42%
    15:00 +36°C° 0 mm 2 m/S 746 mmHg 38%
    16:00 +36°C° 0 mm 3 m/S 746 mmHg 38%
    17:00 +36°C° 0 mm 3 m/S 746 mmHg 38%
    18:00 +36°C° 0 mm 3 m/S 745 mmHg 38%
    19:00 +34°C° 0,1 mm 3 m/S 746 mmHg 41%
    20:00 +33°C° 0,1 mm 3 m/S 746 mmHg 44%
    21:00 +31°C° 0,1 mm 3 m/S 746 mmHg 47%
    22:00 +30°C° 0,1 mm 3 m/S 747 mmHg 50%
    23:00 +29°C° 0,1 mm 2 m/S 747 mmHg 54%

    Morgen, 23 Juli, Montag

    Zeit Temperatur Niederschläge Wind Luftdruck Luftfeuchtigkeit
    00:00 +28°C° 0,1 mm 2 m/S 747 mmHg 57%
    01:00 +27°C° 0 mm 1 m/S 747 mmHg 59%
    02:00 +27°C° 0 mm 1 m/S 747 mmHg 61%
    03:00 +26°C° 0 mm 1 m/S 747 mmHg 63%
    04:00 +27°C° 0 mm 1 m/S 747 mmHg 62%
    05:00 +27°C° 0 mm 1 m/S 747 mmHg 60%
    06:00 +28°C° 0 mm 1 m/S 747 mmHg 59%
    07:00 +29°C° 0 mm 1 m/S 746 mmHg 54%
    08:00 +30°C° 0 mm 2 m/S 746 mmHg 50%
    09:00 +32°C° 0 mm 2 m/S 746 mmHg 45%
    10:00 +34°C° 0 mm 2 m/S 746 mmHg 42%
    11:00 +35°C° 0 mm 2 m/S 745 mmHg 39%
    12:00 +36°C° 0 mm 2 m/S 745 mmHg 36%
    13:00 +37°C° 0 mm 2 m/S 744 mmHg 35%
    14:00 +37°C° 0 mm 2 m/S 744 mmHg 33%
    15:00 +38°C° 0 mm 2 m/S 743 mmHg 32%
    16:00 +38°C° 0 mm 2 m/S 743 mmHg 32%
    17:00 +38°C° 0 mm 2 m/S 743 mmHg 32%
    18:00 +37°C° 0 mm 2 m/S 743 mmHg 33%
    19:00 +36°C° 0,2 mm 2 m/S 744 mmHg 37%
    20:00 +34°C° 0,2 mm 2 m/S 744 mmHg 41%
    21:00 +31°C° 0,2 mm 2 m/S 745 mmHg 45%
    22:00 +30°C° 0,7 mm 2 m/S 745 mmHg 49%
    23:00 +29°C° 0,7 mm 2 m/S 745 mmHg 53%

    übermorgen, 24 Juli, Dienstag

    Zeit Temperatur Niederschläge Wind Luftdruck Luftfeuchtigkeit
    00:00 +28°C° 0,7 mm 2 m/S 746 mmHg 57%
    01:00 +28°C° 0 mm 2 m/S 746 mmHg 58%
    02:00 +27°C° 0 mm 2 m/S 746 mmHg 59%
    03:00 +27°C° 0 mm 3 m/S 745 mmHg 59%
    04:00 +27°C° 0 mm 3 m/S 745 mmHg 59%
    05:00 +28°C° 0 mm 3 m/S 745 mmHg 58%
    06:00 +28°C° 0 mm 4 m/S 745 mmHg 57%
    07:00 +30°C° 0 mm 4 m/S 745 mmHg 52%
    08:00 +32°C° 0 mm 4 m/S 745 mmHg 47%
    09:00 +34°C° 0 mm 4 m/S 745 mmHg 42%
    10:00 +35°C° 0 mm 4 m/S 745 mmHg 40%
    11:00 +36°C° 0 mm 3 m/S 745 mmHg 37%
    12:00 +38°C° 0 mm 3 m/S 744 mmHg 34%
    13:00 +38°C° 0 mm 2 m/S 744 mmHg 33%
    14:00 +39°C° 0 mm 2 m/S 744 mmHg 31%
    15:00 +39°C° 0 mm 2 m/S 744 mmHg 30%
    16:00 +39°C° 0 mm 2 m/S 744 mmHg 30%
    17:00 +39°C° 0 mm 1 m/S 744 mmHg 30%
    18:00 +39°C° 0 mm 1 m/S 745 mmHg 31%
    19:00 +37°C° 0 mm 2 m/S 745 mmHg 33%
    20:00 +36°C° 0 mm 2 m/S 746 mmHg 35%
    21:00 +34°C° 0 mm 2 m/S 746 mmHg 37%
    22:00 +32°C° 0 mm 2 m/S 746 mmHg 40%
    23:00 +32°C° 0 mm 2 m/S 747 mmHg 42%

    25 Juli, Mittwoch

    Zeit Temperatur Niederschläge Wind Luftdruck Luftfeuchtigkeit
    00:00 +31°C° 0 mm 2 m/S 747 mmHg 44%
    01:00 +30°C° 0 mm 2 m/S 747 mmHg 45%
    02:00 +30°C° 0 mm 2 m/S 747 mmHg 47%
    03:00 +29°C° 0 mm 1 m/S 746 mmHg 49%
    04:00 +30°C° 0 mm 1 m/S 747 mmHg 49%
    05:00 +30°C° 0 mm 1 m/S 747 mmHg 48%
    06:00 +30°C° 0 mm 1 m/S 747 mmHg 48%
    07:00 +32°C° 0 mm 1 m/S 747 mmHg 44%
    08:00 +34°C° 0 mm 1 m/S 746 mmHg 41%
    09:00 +36°C° 0 mm 2 m/S 746 mmHg 37%
    10:00 +38°C° 0 mm 2 m/S 746 mmHg 35%
    11:00 +39°C° 0 mm 2 m/S 745 mmHg 32%
    12:00 +40°C° 0 mm 2 m/S 745 mmHg 30%
    13:00 +42°C° 0 mm 3 m/S 744 mmHg 28%
    14:00 +43°C° 0 mm 3 m/S 744 mmHg 26%
    15:00 +44°C° 0 mm 4 m/S 744 mmHg 24%
    16:00 +44°C° 0 mm 4 m/S 744 mmHg 25%
    17:00 +43°C° 0 mm 4 m/S 744 mmHg 25%
    18:00 +43°C° 0 mm 5 m/S 744 mmHg 25%
    19:00 +41°C° 0 mm 5 m/S 745 mmHg 30%
    20:00 +39°C° 0 mm 5 m/S 745 mmHg 35%
    21:00 +36°C° 0 mm 5 m/S 746 mmHg 40%
    22:00 +35°C° 0 mm 4 m/S 746 mmHg 43%
    23:00 +34°C° 0 mm 4 m/S 746 mmHg 46%

    26 Juli, Donnerstag

    Zeit Temperatur Niederschläge Wind Luftdruck Luftfeuchtigkeit
    00:00 +33°C° 0 mm 3 m/S 746 mmHg 50%
    01:00 +31°C° 0 mm 2 m/S 746 mmHg 52%
    02:00 +31°C° 0 mm 2 m/S 746 mmHg 54%
    03:00 +30°C° 0 mm 1 m/S 746 mmHg 56%
    04:00 +30°C° 0 mm 1 m/S 746 mmHg 55%
    05:00 +31°C° 0 mm 1 m/S 746 mmHg 55%
    06:00 +31°C° 0 mm 1 m/S 747 mmHg 54%
    07:00 +32°C° 0 mm 1 m/S 746 mmHg 49%
    08:00 +35°C° 0 mm 2 m/S 746 mmHg 44%
    09:00 +36°C° 0 mm 2 m/S 746 mmHg 39%
    10:00 +38°C° 0 mm 3 m/S 746 mmHg 36%
    11:00 +39°C° 0 mm 3 m/S 746 mmHg 34%
    12:00 +42°C° 0 mm 4 m/S 745 mmHg 31%
    13:00 +43°C° 0 mm 5 m/S 745 mmHg 29%
    14:00 +45°C° 0 mm 5 m/S 745 mmHg 27%
    15:00 +46°C° 0 mm 6 m/S 745 mmHg 24%
    16:00 +45°C° 0 mm 6 m/S 745 mmHg 24%
    17:00 +43°C° 0 mm 7 m/S 745 mmHg 24%
    18:00 +41°C° 0 mm 8 m/S 745 mmHg 23%
    19:00 +39°C° 0,1 mm 6 m/S 746 mmHg 26%
    20:00 +36°C° 0,1 mm 5 m/S 746 mmHg 28%
    21:00 +34°C° 0,1 mm 4 m/S 747 mmHg 30%
    22:00 +33°C° 0 mm 3 m/S 747 mmHg 32%
    23:00 +32°C° 0 mm 2 m/S 747 mmHg 33%

    27 Juli, Freitag

    Zeit Temperatur Niederschläge Wind Luftdruck Luftfeuchtigkeit
    00:00 +31°C° 0 mm 2 m/S 747 mmHg 35%
    01:00 +31°C° 0 mm 2 m/S 747 mmHg 35%
    02:00 +30°C° 0 mm 2 m/S 747 mmHg 35%
    03:00 +30°C° 0 mm 2 m/S 747 mmHg 36%
    04:00 +30°C° 0 mm 1 m/S 747 mmHg 36%
    05:00 +31°C° 0 mm 1 m/S 748 mmHg 36%
    06:00 +31°C° 0 mm 1 m/S 748 mmHg 35%
    07:00 +34°C° 0 mm 2 m/S 748 mmHg 32%
    08:00 +36°C° 0 mm 3 m/S 748 mmHg 29%
    09:00 +38°C° 0 mm 3 m/S 748 mmHg 25%
    10:00 +40°C° 0 mm 4 m/S 747 mmHg 23%
    11:00 +41°C° 0 mm 5 m/S 747 mmHg 21%
    12:00 +44°C° 0 mm 6 m/S 746 mmHg 19%
    13:00 +44°C° 0 mm 6 m/S 746 mmHg 18%
    14:00 +45°C° 0 mm 7 m/S 746 mmHg 17%
    15:00 +45°C° 0 mm 7 m/S 745 mmHg 17%
    16:00 +44°C° 0 mm 7 m/S 746 mmHg 17%
    17:00 +43°C° 0 mm 7 m/S 746 mmHg 18%
    18:00 +41°C° 0 mm 7 m/S 746 mmHg 18%
    19:00 +39°C° 0 mm 6 m/S 746 mmHg 20%
    20:00 +36°C° 0 mm 5 m/S 747 mmHg 22%
    21:00 +34°C° 0 mm 4 m/S 747 mmHg 24%
    22:00 +33°C° 0 mm 4 m/S 747 mmHg 25%
    23:00 +31°C° 0 mm 3 m/S 747 mmHg 26%
    Mehr zeigen